[[{"header":{"parameterUnit":"m.s-1","parameterCategory":1,"la1":30.2991,"la2":30.254,"lo1":-89.0895,"lo2":-89.0444,"dy":0.0017,"dx":0.0017,"nx":28,"ny":28,"refTime":"2024-03-17T03:00:00:Z","depth":0,"parameterNumber":2,"parameterNumberName":"U-component_of_WINDS"},"data":[0,0,0,0,0,0,0,0,0,0,0,0,0,0,0,0,0,0,0,0,0,0,0,0,0,0,0,0,0,0,0,0,0,0,0,0,0,0,0,0,0,0,0,0,0,0,0,0,0,0,0,0,0,0,0,0,0,0,-0.8258,-0.8258,0,-0.8265,-0.8265,-0.8265,-0.8216,-0.8215,-0.8213,-0.8212,-0.8221,-0.8223,-0.8224,0,0,0,0,0,0,0,0,0,0,0,0,0,-0.8204,-0.8205,-0.8258,-0.8258,-0.8258,-0.8265,-0.8265,-0.8265,-0.8216,-0.8215,-0.8213,-0.8211,-0.8221,-0.8223,-0.8224,0,0,0,0,0,0,0,0,0,0,0,0,0,-0.8221,-0.8206,-0.8258,-0.8235,-0.8233,-0.8265,-0.8265,-0.8265,-0.8217,-0.8215,-0.8213,-0.8211,-0.822,-0.8222,-0.8225,-0.8281,0,0,-0.8232,-0.8233,0,0,0,0,0,0,0,0,-0.822,-0.8223,-0.8238,-0.8236,-0.8234,-0.8237,-0.8249,-0.827,-0.8217,-0.8223,-0.8212,-0.821,-0.8228,-0.823,-0.8236,-0.8281,-0.8281,-0.8232,-0.8233,-0.8234,-0.8235,0,0,0,0,0,0,0,-0.8219,-0.8223,-0.8261,-0.8238,-0.8236,-0.8224,-0.8224,-0.8253,-0.8237,-0.8222,-0.8219,-0.822,-0.8227,-0.8234,-0.8236,-0.8282,-0.8232,-0.8234,-0.8235,-0.8236,-0.8373,-0.8375,0,0,0,0,0,0,-0.8221,-0.8222,-0.8261,-0.8261,-0.8222,-0.8227,-0.8227,-0.8239,-0.8237,-0.8235,-0.8222,-0.8218,-0.8231,-0.8233,-0.8236,-0.8301,-0.8234,-0.8236,-0.8238,-0.8371,-0.8374,-0.8376,0,0,0,0,0,0,-0.822,-0.8225,-0.826,-0.8241,-0.8244,-0.823,-0.8243,-0.824,-0.8246,-0.8236,-0.8234,-0.8232,-0.8229,-0.8233,-0.827,-0.8301,-0.8237,-0.824,-0.8368,-0.8372,-0.8375,-0.8433,0,0,0,0,0,0,-0.8219,-0.8225,-0.8245,-0.8241,-0.8245,-0.8294,-0.8245,-0.8241,-0.825,-0.8245,-0.8245,-0.8243,-0.8228,-0.8267,-0.8272,-0.8303,-0.8241,-0.8365,-0.837,-0.8374,-0.8428,-0.8438,-0.8446,0,0,0,0,0,-0.8217,-0.8262,-0.8247,-0.8252,-0.8271,-0.8296,-0.8298,-0.8279,-0.8253,-0.8274,-0.8268,-0.8243,-0.8297,-0.8271,-0.8277,-0.8309,-0.8363,-0.8369,-0.8373,-0.8424,-0.8436,-0.8446,0,0,0,0,0,0,-0.8271,-0.8261,-0.8244,-0.8289,-0.8294,-0.8287,-0.8313,-0.8292,-0.8305,-0.83,-0.8276,-0.8277,-0.8318,-0.8317,-0.8288,-0.8363,-0.8325,-0.8332,-0.8362,-0.8373,-0.8382,-0.8382,-0.8243,0,0,0,0,0,-0.8288,-0.8308,-0.8299,-0.8339,-0.8342,-0.8328,-0.8338,-0.8323,-0.8327,-0.8329,-0.8325,-0.833,-0.8348,-0.8361,-0.8377,-0.8428,-0.8427,-0.8453,-0.8462,-0.8469,-0.8475,-0.8503,-0.8514,-0.8393,-0.8393,-0.8393,0,0,-0.8324,-0.8321,-0.8335,-0.835,-0.8352,-0.8374,-0.8329,-0.8355,-0.8371,-0.8333,-0.8367,-0.8365,-0.8369,-0.8414,-0.8433,-0.8414,-0.8509,-0.8476,-0.8482,-0.8484,-0.8509,-0.8521,-0.8531,-0.8396,-0.8395,-0.8395,0,0,-0.84,-0.84,-0.8433,-0.8436,-0.8439,-0.8428,-0.8437,-0.8434,-0.843,-0.8465,-0.8436,-0.8456,-0.8487,-0.8491,-0.8498,-0.8576,-0.8554,-0.8582,-0.8629,-0.8656,-0.8666,-0.8674,-0.8702,-0.8713,-0.8588,-0.8588,-0.8588,0,-0.8444,-0.8476,-0.8454,-0.8481,-0.8489,-0.8454,-0.8489,-0.8492,-0.8501,-0.8507,-0.8485,-0.8524,-0.8525,-0.857,-0.8589,-0.8595,-0.8604,-0.8582,-0.8666,-0.8674,-0.8682,-0.8708,-0.8719,-0.8591,-0.8591,-0.859,-0.859,0,-0.853,-0.8553,-0.858,-0.8588,-0.8599,-0.863,-0.8613,-0.8626,-0.8611,-0.8603,-0.8639,-0.8638,-0.8653,-0.8663,-0.8648,-0.8706,-0.8694,-0.867,-0.8632,-0.8697,-0.8722,-0.8732,-0.8596,-0.8595,-0.8594,-0.8593,0,0,-0.8641,-0.8637,-0.8647,-0.865,-0.8651,-0.8668,-0.8698,-0.8712,-0.8724,-0.8731,-0.8756,-0.8783,-0.876,-0.8768,-0.8753,-0.8776,-0.8839,-0.8749,-0.8749,-0.8766,-0.8903,-0.8922,-0.8934,-0.8824,-0.8826,-0.8827,-0.8903,0,-0.8716,-0.8766,-0.8747,-0.8798,-0.8819,-0.8786,-0.8811,-0.8815,-0.8808,-0.8826,-0.8818,-0.8838,-0.8807,-0.8811,-0.8833,-0.8827,-0.8866,-0.8821,-0.8847,-0.8848,-0.8848,-0.8947,-0.8967,-0.9039,-0.8913,-0.8914,-0.8915,0,-0.881,-0.882,-0.8874,-0.887,-0.8878,-0.8902,-0.8913,-0.893,-0.8933,-0.8927,-0.8935,-0.8915,-0.8944,-0.8906,-0.8946,-0.8916,-0.8925,-0.8924,-0.8926,-0.8929,-0.8886,-0.8953,-0.9062,-0.9073,-0.893,-0.8929,-0.8928,0,-0.8887,-0.8914,-0.8949,-0.8953,-0.895,-0.8967,-0.8967,-0.8968,-0.8978,-0.8988,-0.8995,-0.9009,-0.9016,-0.9028,-0.9013,-0.8986,-0.9056,-0.9016,-0.9052,-0.9052,-0.9068,-0.9068,-0.9181,-0.9074,-0.9074,-0.9073,-0.9073,0,-0.8973,-0.9007,-0.8983,-0.9005,-0.9042,-0.902,-0.9058,-0.9054,-0.9055,-0.9076,-0.9049,-0.9069,-0.9047,-0.9066,-0.9054,-0.9089,-0.9093,-0.9089,-0.9086,-0.9092,-0.9093,-0.9099,-0.9093,-0.9076,-0.9076,-0.9075,-0.9075,0,-0.9065,-0.905,-0.9086,-0.9081,-0.908,-0.9108,-0.9103,-0.9123,-0.9114,-0.9141,-0.9146,-0.9133,-0.9154,-0.9139,-0.916,-0.9151,-0.9198,-0.9188,-0.9197,-0.9194,-0.9232,-0.9229,-0.9353,-0.9368,-0.9251,-0.9252,-0.9253,0,-0.9121,-0.9146,-0.9143,-0.9154,-0.9156,-0.9175,-0.9185,-0.9164,-0.9176,-0.9181,-0.9201,-0.9219,-0.9232,-0.9266,-0.9259,-0.9275,-0.9264,-0.9307,-0.9267,-0.9272,-0.9266,-0.9265,-0.9267,-0.9315,-0.9317,-0.9318,-0.9319,0,-0.9222,-0.9214,-0.9228,-0.9241,-0.9253,-0.9262,-0.9269,-0.928,-0.926,-0.9274,-0.9294,-0.9304,-0.9325,-0.9343,-0.9356,-0.9356,-0.9335,-0.9331,-0.9341,-0.9348,-0.9352,-0.9351,-0.922,-0.9329,-0.9328,-0.9327,-0.9326,-0.9326,-0.9298,-0.9319,-0.932,-0.9338,-0.934,-0.9347,-0.9366,-0.936,-0.9376,-0.939,-0.9377,-0.9402,-0.9405,-0.9419,-0.9422,-0.9442,-0.9424,-0.9438,-0.9441,-0.9445,-0.945,-0.9349,-0.9444,-0.9443,-0.9443,-0.9443,-0.9443,0,-0.9399,-0.9397,-0.9414,-0.9424,-0.9438,-0.9415,-0.9421,-0.9435,-0.9456,-0.946,-0.9474,-0.9497,-0.9515,-0.9509,-0.9524,-0.9541,-0.9531,-0.9546,-0.9545,-0.9545,-0.9465,-0.9455,-0.9553,-0.9553,-0.9553,-0.9553,-0.9553,-0.9553,-0.9453,-0.9487,-0.9479,-0.9514,-0.9513,-0.9536,-0.9542,-0.9548,-0.9551,-0.9578,-0.9592,-0.9588,-0.9588,-0.9604,-0.9619,-0.9617,-0.9624,-0.9642,-0.9637,-0.9562,-0.9551,-0.954,-0.9532,-0.9644,-0.9644,-0.9716,-0.9717,-0.9717]},{"header":{"parameterUnit":"m.s-1","parameterCategory":1,"la1":30.2991,"la2":30.254,"lo1":-89.0895,"lo2":-89.0444,"dy":0.0017,"dx":0.0017,"nx":28,"ny":28,"refTime":"2024-03-17T03:00:00:Z","depth":0,"parameterNumber":3,"parameterNumberName":"V-component_of_WINDS"},"data":[0,0,0,0,0,0,0,0,0,0,0,0,0,0,0,0,0,0,0,0,0,0,0,0,0,0,0,0,0,0,0,0,0,0,0,0,0,0,0,0,0,0,0,0,0,0,0,0,0,0,0,0,0,0,0,0,0,0,-0.949,-0.949,0,-0.9446,-0.9446,-0.9445,-0.9398,-0.9397,-0.9396,-0.9396,-0.935,-0.935,-0.9349,0,0,0,0,0,0,0,0,0,0,0,0,0,-0.9532,-0.9532,-0.949,-0.949,-0.9489,-0.9446,-0.9446,-0.9445,-0.9398,-0.9397,-0.9396,-0.9395,-0.935,-0.935,-0.9349,0,0,0,0,0,0,0,0,0,0,0,0,0,-0.9504,-0.9532,-0.949,-0.946,-0.9457,-0.9446,-0.9446,-0.9445,-0.9398,-0.9397,-0.9396,-0.9395,-0.9351,-0.935,-0.9349,-0.9364,0,0,-0.9346,-0.9346,0,0,0,0,0,0,0,0,-0.9506,-0.9502,-0.9465,-0.9462,-0.9459,-0.9426,-0.9444,-0.9418,-0.9398,-0.942,-0.9396,-0.9394,-0.9376,-0.9373,-0.9367,-0.9362,-0.936,-0.9346,-0.9346,-0.9345,-0.9345,0,0,0,0,0,0,0,-0.9508,-0.9504,-0.9473,-0.9465,-0.9461,-0.9449,-0.9444,-0.9439,-0.9405,-0.9418,-0.9415,-0.941,-0.9374,-0.9368,-0.9366,-0.9359,-0.9346,-0.9346,-0.9345,-0.9345,-0.9363,-0.9364,0,0,0,0,0,0,-0.9514,-0.9506,-0.9474,-0.9471,-0.948,-0.9449,-0.9443,-0.9438,-0.9405,-0.9398,-0.9411,-0.9408,-0.937,-0.9367,-0.9364,-0.9379,-0.9345,-0.9345,-0.9344,-0.9362,-0.9363,-0.9364,0,0,0,0,0,0,-0.9515,-0.9512,-0.9476,-0.9488,-0.9482,-0.9449,-0.9444,-0.9437,-0.9431,-0.9399,-0.9393,-0.9411,-0.9369,-0.9365,-0.9364,-0.9376,-0.9344,-0.9343,-0.936,-0.9362,-0.9363,-0.9409,0,0,0,0,0,0,-0.9517,-0.9512,-0.9518,-0.9488,-0.9482,-0.9477,-0.9444,-0.9437,-0.943,-0.9426,-0.9397,-0.9392,-0.9368,-0.9366,-0.9363,-0.9375,-0.9343,-0.9359,-0.9361,-0.9363,-0.9406,-0.9412,-0.9416,0,0,0,0,0,-0.9518,-0.9533,-0.9519,-0.9515,-0.9488,-0.9478,-0.9474,-0.9447,-0.9431,-0.9436,-0.9415,-0.9393,-0.9376,-0.9366,-0.9363,-0.9374,-0.9358,-0.9361,-0.9363,-0.9404,-0.941,-0.9416,0,0,0,0,0,0,-0.9565,-0.9528,-0.9512,-0.9517,-0.9501,-0.947,-0.9476,-0.9455,-0.9443,-0.9439,-0.9406,-0.94,-0.9402,-0.9388,-0.9378,-0.9386,-0.9364,-0.9365,-0.9396,-0.9402,-0.9407,-0.941,-0.9342,0,0,0,0,0,-0.9576,-0.9571,-0.9539,-0.9546,-0.9539,-0.9509,-0.9503,-0.9484,-0.9465,-0.9458,-0.9437,-0.9421,-0.9411,-0.9406,-0.9395,-0.9404,-0.9396,-0.941,-0.9415,-0.9419,-0.9421,-0.9424,-0.9429,-0.9371,-0.9371,-0.9371,0,0,-0.9598,-0.9578,-0.9576,-0.9555,-0.954,-0.9536,-0.9503,-0.95,-0.9496,-0.9458,-0.9455,-0.9439,-0.9418,-0.9422,-0.9422,-0.941,-0.9436,-0.9422,-0.9426,-0.9425,-0.9427,-0.9432,-0.9437,-0.9373,-0.9373,-0.9372,0,0,-0.9637,-0.9621,-0.9625,-0.961,-0.9588,-0.9568,-0.9569,-0.9541,-0.9529,-0.9526,-0.9497,-0.9491,-0.9476,-0.9462,-0.9453,-0.9485,-0.9463,-0.9483,-0.951,-0.9513,-0.9517,-0.9521,-0.9532,-0.9537,-0.9485,-0.9485,-0.9485,0,-0.9667,-0.9659,-0.963,-0.9628,-0.9619,-0.9584,-0.9588,-0.9575,-0.9551,-0.9546,-0.9532,-0.9512,-0.9495,-0.9494,-0.9502,-0.9496,-0.9496,-0.9486,-0.9519,-0.9523,-0.9526,-0.9536,-0.954,-0.9487,-0.9487,-0.9487,-0.9486,0,-0.9697,-0.9692,-0.9698,-0.9675,-0.9667,-0.9668,-0.9639,-0.9634,-0.9615,-0.9596,-0.9593,-0.9572,-0.9556,-0.9554,-0.9536,-0.9551,-0.9544,-0.9525,-0.9502,-0.9534,-0.9543,-0.9547,-0.9491,-0.949,-0.9489,-0.9489,0,0,-0.9764,-0.9725,-0.9727,-0.9716,-0.9689,-0.9684,-0.9683,-0.9668,-0.9664,-0.9649,-0.9647,-0.9634,-0.9617,-0.9606,-0.9586,-0.9588,-0.9615,-0.9569,-0.9568,-0.9578,-0.9629,-0.9643,-0.9648,-0.96,-0.9601,-0.9601,-0.9631,0,-0.9797,-0.9794,-0.9767,-0.9771,-0.9765,-0.9732,-0.9731,-0.9714,-0.9696,-0.9688,-0.9668,-0.966,-0.9638,-0.9631,-0.9632,-0.9611,-0.9624,-0.9609,-0.9598,-0.9598,-0.9604,-0.9653,-0.9668,-0.9696,-0.9634,-0.9635,-0.9635,0,-0.9835,-0.9822,-0.9825,-0.9797,-0.9794,-0.9794,-0.9777,-0.9771,-0.975,-0.9737,-0.9725,-0.9702,-0.9699,-0.9677,-0.9671,-0.9661,-0.9655,-0.9644,-0.9644,-0.9642,-0.9618,-0.9651,-0.9705,-0.9709,-0.964,-0.964,-0.964,0,-0.9883,-0.9866,-0.9865,-0.9857,-0.9824,-0.9825,-0.9811,-0.979,-0.9783,-0.9768,-0.9763,-0.9748,-0.974,-0.9729,-0.9702,-0.9689,-0.97,-0.9676,-0.9688,-0.9689,-0.9692,-0.9692,-0.9745,-0.9689,-0.9688,-0.9688,-0.9688,0,-0.9923,-0.9926,-0.9886,-0.9886,-0.9889,-0.9858,-0.9861,-0.9844,-0.9825,-0.9821,-0.9791,-0.9788,-0.9752,-0.9745,-0.9724,-0.9722,-0.9719,-0.9708,-0.9702,-0.971,-0.9712,-0.9705,-0.9703,-0.9689,-0.9689,-0.9689,-0.9689,0,-0.9976,-0.995,-0.9947,-0.9916,-0.9909,-0.9912,-0.9886,-0.9884,-0.9864,-0.9859,-0.9856,-0.9825,-0.9814,-0.9786,-0.9768,-0.9754,-0.9758,-0.9748,-0.9765,-0.9761,-0.9775,-0.9774,-0.9826,-0.9831,-0.9772,-0.9773,-0.9773,0,-1.0003,-1.0005,-0.9974,-0.9969,-0.9957,-0.9949,-0.9941,-0.9911,-0.9904,-0.988,-0.9881,-0.9868,-0.9856,-0.9841,-0.9816,-0.9802,-0.9791,-0.981,-0.9789,-0.9797,-0.9791,-0.9791,-0.9791,-0.9815,-0.9816,-0.9816,-0.9817,0,-1.0053,-1.004,-1.003,-1.0015,-1.0006,-0.9993,-0.9978,-0.9975,-0.9941,-0.9934,-0.9923,-0.9914,-0.9895,-0.9882,-0.9865,-0.985,-0.9828,-0.9824,-0.9826,-0.9834,-0.9844,-0.9838,-0.9777,-0.9823,-0.9822,-0.9822,-0.9821,-0.9821,-1.0094,-1.0094,-1.0072,-1.0062,-1.0047,-1.0034,-1.003,-1.001,-1.0,-0.9983,-0.9965,-0.9956,-0.9935,-0.9908,-0.9895,-0.9887,-0.9875,-0.9879,-0.9879,-0.9881,-0.9884,-0.9845,-0.9884,-0.9884,-0.9883,-0.9883,-0.9883,0,-1.0142,-1.0127,-1.0117,-1.0097,-1.0089,-1.0068,-1.0051,-1.0045,-1.0037,-1.0019,-1.0008,-0.9995,-0.9982,-0.9956,-0.9941,-0.994,-0.9929,-0.9937,-0.9936,-0.9933,-0.9896,-0.9895,-0.9946,-0.9946,-0.9946,-0.9946,-0.9946,-0.9946,-1.0166,-1.0165,-1.0149,-1.014,-1.0124,-1.0114,-1.0106,-1.0093,-1.0079,-1.0065,-1.0055,-1.0038,-1.0017,-1.0,-0.9988,-0.998,-0.9976,-0.9987,-0.9976,-0.9942,-0.9936,-0.993,-0.993,-0.9986,-0.9986,-1.0014,-1.0015,-1.0015]}]]